Location: Unspecified
(0.0000°N, 0.0000°E)
Time: 08:14:12
(UTC+00:00)

Cosmos 2333 Rocket - Pass Details

Date: 19 December 2025
Orbit: 837 x 865 km, 70.8° (Epoch: 14 January)

Event Time Altitude Azimuth Distance (km) Brightness Sun altitude
Exits shadow 04:13:28 - 10° (N) 3,162 5.0 -23.6°
Reaches altitude 10° 04:15:37 10° 20° (NNE) 2,471 4.6 -23.1°
Maximum altitude 04:20:12 25° 74° (ENE) 1,642 4.2 -22.1°
Drops below altitude 10° 04:24:45 10° 128° (SE) 2,464 5.7 -21.1°
Sets 04:27:35 0° 141° (SE) 3,397 6.5 -20.4°
